Weather in Yakutsk

Russia / Sakha (Yakutia) Republic     62°01′41″N   129°43′57″E
temp.,
°C
wind,
m/s
gust,
m/s
humid.,
%
clouds,
%
prec.,
mm/h
press.,
hPa
HPBL,
m
19 may, wed
wed1900:00+1n005879 0.0 100510
03:00−1nw116760 0.0 100510
06:00+2nne115671 0.0 1006221
09:00+5nnw1239100 0.0 10061374
12:00+8nne1225100 0.0 10052623
15:00+9ne222499 0.0 10042626
18:00+9nne112598 0.0 10052404
21:00+5wnw234699 0.0 100665
20 may, thu
thu2000:00+3nw116194 0.0 100717
03:00+1n225687 0.0 100824
06:00+3nne114722 0.0 1008170
09:00+7ne22395 0.0 1008975
12:00+10ne2229100 0.0 10072481
15:00+10ese3334100 0.0 10062135
18:00+7ene5752100 0.1 1008539
21:00+6ne2560100 0.2 1009577
21 may, fri
fri2100:00+4w3476100 0.7 1009221
03:00+4nnw3972100 1.0 1009307
06:00+4nnw51064100 0.0 1011366
09:00+7nnw4744100 0.1 1011666
12:00+11nnw562785 0.0 10112344
15:00+13nw4620100 0.0 10113374
18:00+12nw552199 0.0 10113068
21:00+7nnw334128 0.0 101238
22 may, sat
sat2200:00+3wnw115569 0.0 101312
03:00+1w227182 0.0 101430
06:00+5w376491 0.0 1014335
09:00+9nw55385 0.0 10131514
12:00+12nw4530100 0.0 10122746
15:00+13nnw5624100 0.0 10122898
18:00+13nnw552788 0.0 10112456
21:00+8nnw33454 0.0 101223
23 may, sun
sun2300:00+4n22535 0.0 101310
03:00+2n115831 0.0 101210
06:00+6e014675 0.0 1012134
09:00+10nne123578 0.0 10111047
12:00+12ne222844 0.0 10082346
15:00+14ene232531 0.0 10062567
18:00+14ene342553 0.0 10052357
21:00+9ese114340 0.0 100510